MOOI WEER BOXTEL

Weerstation in Boxtel

Actuele weerinformatie en voorspellingen


Onweer radar Meer informatie blitzortung!


Regen radar Meer informatie rain snow radar


Meer informatie

Template documentation
and downloads

Weblog Hans on Experience

Profiel Hans Mestrum



Het weer levert geen direct gevaar op.    Er zijn geen waarschuwingen afgegeven.

Weather Underground Historische gegevens

Dagelijkse Samenvatting april 20, 2018 Eenheden:  Metrisch    Engels   Beide
« Vorige Dag
Volgende Dag »
Dagelijkse Wekelijkse Maandelijkse Jaarlijkse Aangepaste
  Huidig: Hoog: Laag: Gemiddeld:
Temperatuur: -3.4 °C -17.8 °C -10.8 °C -6.1 °C
Dauwpunt: -12.4 °C -17.8 °C -12.7 °C -11.3 °C
Vochtigheid: 36 % Humidity % 35 % 58 %
Wind snelheid: 0 km/h 0 km/h 0 km/h 1.1 km/h
Windvlaag: 5.1 km/h 0 km/h - -
Wind:Calm - - South
Luchtdruk: 34496.6 hPa 0 hPa 34496.6 hPa -
Neerslag: 0 mm      
Historical Graphs
 
 
Tabel voor april 20, 2018
Tijd Temperatuur Dauwpunt Luchtdruk Wind Wind snelheid Windvlaag Vochtigheid Regenval per uur
-17.8 °C -17.8 °C 0 hPa Calm     Humidity % 0 mm
00:02 -7.6 °C -12.7 °C 34567.7 hPa Calm     55 % 0 mm
00:07 -7.7 °C -12.6 °C 34567.7 hPa Calm     56 % 0 mm
00:13 -7.7 °C -12.7 °C 34567.7 hPa Calm     56 % 0 mm
00:18 -7.8 °C -12.6 °C 34567.7 hPa Calm     57 % 0 mm
00:23 -7.9 °C -12.7 °C 34567.7 hPa Calm     57 % 0 mm
00:28 -7.9 °C -12.7 °C 34567.7 hPa Calm     57 % 0 mm
00:33 -8.1 °C -12.6 °C 34567.7 hPa Calm     59 % 0 mm
00:38 -8.1 °C -12.4 °C 34567.7 hPa Calm     60 % 0 mm
00:44 -8.2 °C -12.5 °C 34567.7 hPa Calm     60 % 0 mm
00:50 -8.3 °C -12.6 °C 34567.7 hPa Calm     60 % 0 mm
00:55 -8.3 °C -12.6 °C 34567.7 hPa Calm     61 % 0 mm
01:00 -8.3 °C -12.4 °C 34567.7 hPa Calm     62 % 0 mm
01:05 -8.4 °C -12.4 °C 34567.7 hPa Calm     62 % 0 mm
01:11 -8.4 °C -12.7 °C 34577.8 hPa Calm     61 % 0 mm
01:16 -8.6 °C -12.6 °C 34567.7 hPa Calm     62 % 0 mm
01:21 -8.7 °C -12.6 °C 34567.7 hPa Calm     63 % 0 mm
01:27 -8.7 °C -12.5 °C 34567.7 hPa Calm     64 % 0 mm
01:32 -8.8 °C -12.6 °C 34577.8 hPa Calm     64 % 0 mm
01:37 -8.9 °C -12.6 °C 34577.8 hPa Calm     65 % 0 mm
01:42 -8.9 °C -12.6 °C 34577.8 hPa Calm     65 % 0 mm
01:47 -8.9 °C -12.6 °C 34577.8 hPa Calm     65 % 0 mm
01:52 -8.9 °C -12.6 °C 34577.8 hPa Calm     65 % 0 mm
01:57 -8.9 °C -12.6 °C 34577.8 hPa Calm     65 % 0 mm
02:02 -9 °C -12.5 °C 34577.8 hPa Calm     66 % 0 mm
02:07 -9.1 °C -12.6 °C 34577.8 hPa Calm     66 % 0 mm
02:12 -9.1 °C -12.4 °C 34567.7 hPa Calm     67 % 0 mm
02:17 -9.1 °C -12.5 °C 34577.8 hPa Calm     67 % 0 mm
02:22 -9.2 °C -12.4 °C 34567.7 hPa Calm     68 % 0 mm
02:27 -9.2 °C -12.5 °C 34567.7 hPa Calm     68 % 0 mm
02:32 -9.2 °C -12.4 °C 34567.7 hPa Calm     69 % 0 mm
02:37 -9.3 °C -12.4 °C 34567.7 hPa Calm     69 % 0 mm
02:42 -9.3 °C -12.3 °C 34567.7 hPa Calm     70 % 0 mm
02:48 -9.3 °C -12.3 °C 34567.7 hPa Calm     70 % 0 mm
02:53 -9.3 °C -12.3 °C 34567.7 hPa Calm     70 % 0 mm
02:58 -9.3 °C -12.2 °C 34567.7 hPa Calm     71 % 0 mm
03:03 -9.3 °C -12.2 °C 34567.7 hPa Calm     71 % 0 mm
03:08 -9.4 °C -12.3 °C 34567.7 hPa Calm     71 % 0 mm
03:14 -9.4 °C -12.3 °C 34554.1 hPa Calm     71 % 0 mm
03:19 -9.5 °C -12.3 °C 34567.7 hPa Calm     72 % 0 mm
03:24 -9.6 °C -12.3 °C 34554.1 hPa Calm     72 % 0 mm
03:30 -9.6 °C -12.3 °C 34567.7 hPa Calm     73 % 0 mm
03:35 -9.7 °C -12.3 °C 34554.1 hPa Calm     73 % 0 mm
03:40 -9.8 °C -12.4 °C 34567.7 hPa Calm     73 % 0 mm
03:45 -9.8 °C -12.3 °C 34567.7 hPa Calm     74 % 0 mm
03:50 -9.8 °C -12.4 °C 34554.1 hPa Calm     74 % 0 mm
03:56 -9.9 °C -12.3 °C 34554.1 hPa Calm     75 % 0 mm
04:01 -9.9 °C -12.4 °C 34554.1 hPa Calm     75 % 0 mm
04:06 -9.9 °C -12.3 °C 34567.7 hPa Calm     76 % 0 mm
04:11 -10 °C -12.3 °C 34554.1 hPa Calm     76 % 0 mm
04:16 -10.1 °C -12.4 °C 34554.1 hPa Calm     76 % 0 mm
04:21 -10 °C -12.3 °C 34554.1 hPa Calm     76 % 0 mm
04:26 -10.1 °C -12.4 °C 34554.1 hPa Calm     76 % 0 mm
04:32 -10.1 °C -12.4 °C 34554.1 hPa Calm     76 % 0 mm
04:37 -10.1 °C -12.4 °C 34554.1 hPa Calm     76 % 0 mm
04:42 -10.2 °C -12.4 °C 34554.1 hPa Calm     77 % 0 mm
04:47 -10.2 °C -12.4 °C 34554.1 hPa Calm     77 % 0 mm
04:52 -10.1 °C -12.2 °C 34554.1 hPa Calm     78 % 0 mm
04:57 -10.1 °C -12.3 °C 34554.1 hPa Calm     77 % 0 mm
05:02 -10.1 °C -12.3 °C 34554.1 hPa Calm     77 % 0 mm
05:07 -10.2 °C -12.3 °C 34554.1 hPa Calm     78 % 0 mm
05:12 -10.2 °C -12.3 °C 34554.1 hPa Calm     78 % 0 mm
05:17 -10.2 °C -12.3 °C 34544 hPa Calm     78 % 0 mm
05:22 -10.3 °C -12.3 °C 34544 hPa Calm     79 % 0 mm
05:27 -10.3 °C -12.3 °C 34554.1 hPa Calm     79 % 0 mm
05:33 -10.3 °C -12.3 °C 34544 hPa Calm     79 % 0 mm
05:38 -10.3 °C -12.2 °C 34544 hPa Calm     80 % 0 mm
05:43 -10.2 °C -12.2 °C 34544 hPa Calm     79 % 0 mm
05:48 -10.2 °C -12.2 °C 34544 hPa Calm     79 % 0 mm
05:53 -10.3 °C -12.2 °C 34544 hPa Calm     80 % 0 mm
05:58 -10.3 °C -12.3 °C 34544 hPa Calm     79 % 0 mm
06:03 -10.3 °C -12.3 °C 34544 hPa Calm     79 % 0 mm
06:08 -10.4 °C -12.3 °C 34544 hPa Calm     80 % 0 mm
06:13 -10.5 °C -12.4 °C 34544 hPa Calm     80 % 0 mm
06:18 -10.6 °C -12.5 °C 34544 hPa Calm     80 % 0 mm
06:23 -10.6 °C -12.4 °C 34544 hPa Calm     81 % 0 mm
06:28 -10.7 °C -12.3 °C 34544 hPa Calm     82 % 0 mm
06:34 -10.7 °C -12.4 °C 34544 hPa Calm     82 % 0 mm
06:39 -10.8 °C -12.3 °C 34544 hPa Calm     83 % 0 mm
06:44 -10.8 °C -12.3 °C 34544 hPa Calm     83 % 0 mm
06:49 -10.7 °C -12.2 °C 34544 hPa Calm     84 % 0 mm
06:54 -10.7 °C -12.2 °C 34544 hPa Calm     84 % 0 mm
06:59 -10.7 °C -12.1 °C 34544 hPa Calm     84 % 0 mm
07:04 -10.7 °C -12.1 °C 34544 hPa Calm     84 % 0 mm
07:09 -10.6 °C -12 °C 34544 hPa Calm     84 % 0 mm
07:14 -10.5 °C -11.9 °C 34544 hPa Calm     84 % 0 mm
07:19 -10.4 °C -11.9 °C 34544 hPa Calm     83 % 0 mm
07:24 -10.4 °C -11.9 °C 34544 hPa Calm     83 % 0 mm
07:29 -10.3 °C -11.9 °C 34544 hPa Calm     83 % 0 mm
07:34 -10.2 °C -11.8 °C 34544 hPa Calm     83 % 0 mm
07:39 -10.2 °C -11.7 °C 34554.1 hPa Calm     83 % 0 mm
07:44 -10.1 °C -11.7 °C 34544 hPa Calm     82 % 0 mm
07:49 -9.9 °C -11.6 °C 34554.1 hPa Calm     82 % 0 mm
07:54 -9.8 °C -11.6 °C 34544 hPa Calm     81 % 0 mm
08:00 -9.7 °C -11.6 °C 34544 hPa Calm     80 % 0 mm
08:05 -9.5 °C -11.5 °C 34544 hPa Calm     79 % 0 mm
08:10 -9.3 °C -11.4 °C 34554.1 hPa Calm     78 % 0 mm
08:15 -9.2 °C -11.4 °C 34544 hPa Calm     77 % 0 mm
08:21 -9.1 °C -11.3 °C 34554.1 hPa Calm     77 % 0 mm
08:26 -8.8 °C -11.1 °C 34544 hPa Calm     76 % 0 mm
08:31 -8.4 °C -11.1 °C 34544 hPa Calm     73 % 0 mm
08:36 -8 °C -11.1 °C 34544 hPa Calm     70 % 0 mm
08:41 -7.8 °C -11.2 °C 34544 hPa Calm     67 % 0 mm
08:46 -7.6 °C -11.2 °C 34544 hPa Calm     66 % 0 mm
08:51 -7.3 °C -11.1 °C 34544 hPa Calm     65 % 0 mm
08:56 -7.1 °C -11 °C 34544 hPa Calm     64 % 0 mm
09:01 -6.9 °C -10.9 °C 34544 hPa Calm     63 % 0 mm
09:07 -6.7 °C -10.9 °C 34544 hPa Calm     62 % 0 mm
09:12 -6.5 °C -10.8 °C 34544 hPa Calm     61 % 0 mm
09:18 -6.4 °C -10.7 °C 34544 hPa Calm     61 % 0 mm
09:23 -6.3 °C -10.7 °C 34544 hPa Calm     60 % 0 mm
09:28 -6.1 °C -10.6 °C 34544 hPa Calm     60 % 0 mm
09:33 -5.9 °C -10.6 °C 34544 hPa Calm   2.6 km/h 59 % 0 mm
09:38 -5.8 °C -10.4 °C 34544 hPa Calm     59 % 0 mm
09:43 -5.6 °C -10.4 °C 34544 hPa Calm     58 % 0 mm
09:49 -5.4 °C -10.4 °C 34544 hPa Calm   2.6 km/h 57 % 0 mm
09:54 -5.3 °C -10.2 °C 34544 hPa Calm   2.6 km/h 57 % 0 mm
09:59 -5.2 °C -10.3 °C 34544 hPa Calm   7.7 km/h 56 % 0 mm
10:04 -5.1 °C -10.4 °C 34544 hPa SSW 2.9 km/h 7.7 km/h 55 % 0 mm
10:09 -5 °C -10.3 °C 34544 hPa Calm   2.6 km/h 55 % 0 mm
10:14 -4.8 °C -10.1 °C 34544 hPa Calm   5.1 km/h 55 % 0 mm
10:19 -4.8 °C -10.4 °C 34544 hPa Calm   5.1 km/h 53 % 0 mm
10:24 -4.6 °C -10.1 °C 34544 hPa Calm   2.6 km/h 54 % 0 mm
10:29 -4.4 °C -10.1 °C 34544 hPa Calm   2.6 km/h 53 % 0 mm
10:34 -4.3 °C -10.2 °C 34544 hPa Calm   5.1 km/h 52 % 0 mm
10:40 -4.1 °C -9.9 °C 34544 hPa Calm   2.6 km/h 52 % 0 mm
10:46 -4 °C -9.8 °C 34554.1 hPa Calm     52 % 0 mm
10:51 -3.8 °C -9.8 °C 34544 hPa Calm   2.6 km/h 51 % 0 mm
10:56 -3.7 °C -9.8 °C 34544 hPa Calm   2.6 km/h 51 % 0 mm
11:01 -3.6 °C -9.8 °C 34544 hPa Calm   7.7 km/h 50 % 0 mm
11:06 -3.5 °C -9.6 °C 34554.1 hPa Calm   2.6 km/h 51 % 0 mm
11:11 -3.4 °C -9.4 °C 34554.1 hPa Calm   2.6 km/h 51 % 0 mm
11:16 -3.2 °C -9.4 °C 34544 hPa Calm   2.6 km/h 50 % 0 mm
11:22 -3.2 °C -9.4 °C 34554.1 hPa Calm   2.6 km/h 50 % 0 mm
11:27 -3.1 °C -9.7 °C 34544 hPa Calm     48 % 0 mm
11:32 -2.9 °C -9.5 °C 34544 hPa SW 5.1 km/h 7.7 km/h 48 % 0 mm
11:37 -2.8 °C -9.3 °C 34544 hPa Calm   2.6 km/h 49 % 0 mm
11:42 -2.7 °C -9.6 °C 34544 hPa Calm   5.1 km/h 47 % 0 mm
11:47 -2.6 °C -9.4 °C 34544 hPa Calm     47 % 0 mm
11:52 -2.6 °C -9.6 °C 34554.1 hPa Calm   2.6 km/h 46 % 0 mm
11:58 -2.6 °C -9.2 °C 34554.1 hPa Calm   2.6 km/h 48 % 0 mm
12:03 -2.4 °C -9.4 °C 34554.1 hPa Calm   2.6 km/h 46 % 0 mm
12:08 -2.5 °C -9.3 °C 34544 hPa Calm     47 % 0 mm
12:14 -2.4 °C -9.6 °C 34554.1 hPa Calm   2.6 km/h 45 % 0 mm
12:19 -2.4 °C -9.8 °C 34544 hPa Calm   5.1 km/h 44 % 0 mm
12:24 -2.3 °C -9.4 °C 34544 hPa Calm   7.7 km/h 46 % 0 mm
12:29 -2.3 °C -9.5 °C 34544 hPa Calm   2.6 km/h 45 % 0 mm
12:34 -2.1 °C -9.6 °C 34544 hPa Calm   2.6 km/h 44 % 0 mm
12:39 -1.9 °C -9.6 °C 34544 hPa Calm   2.6 km/h 43 % 0 mm
12:44 -1.8 °C -9.7 °C 34544 hPa Calm   7.7 km/h 42 % 0 mm
12:50 -1.8 °C -9.9 °C 34544 hPa SE 2.9 km/h 5.1 km/h 41 % 0 mm
12:55 -1.7 °C -10.2 °C 34544 hPa Calm   5.1 km/h 39 % 0 mm
13:00 -1.6 °C -9.9 °C 34544 hPa Calm   7.7 km/h 40 % 0 mm
13:05 -1.6 °C -9.9 °C 34544 hPa SW 2.9 km/h 10.3 km/h 40 % 0 mm
13:10 -1.4 °C -10.2 °C 34533.8 hPa Calm     38 % 0 mm
13:16 -1.4 °C -10 °C 34544 hPa Calm   7.7 km/h 39 % 0 mm
13:21 -1.3 °C -10.1 °C 34533.8 hPa Calm   7.7 km/h 38 % 0 mm
13:26 -1.3 °C -10.3 °C 34533.8 hPa Calm   5.1 km/h 37 % 0 mm
13:31 -1.4 °C -10.2 °C 34533.8 hPa Calm   7.7 km/h 38 % 0 mm
13:36 -1.7 °C -10.2 °C 34533.8 hPa Calm   2.6 km/h 39 % 0 mm
13:41 -1.7 °C -10.4 °C 34533.8 hPa Calm   10.3 km/h 38 % 0 mm
13:46 -1.5 °C -10.3 °C 34533.8 hPa Calm   7.7 km/h 38 % 0 mm
13:51 -1.6 °C -10.3 °C 34533.8 hPa Calm   12.9 km/h 38 % 0 mm
13:57 -1.7 °C -10.7 °C 34533.8 hPa ENE 2.9 km/h 7.7 km/h 37 % 0 mm
14:02 -1.6 °C -10.6 °C 34533.8 hPa SSW 2.9 km/h 10.3 km/h 37 % 0 mm
14:07 -1.7 °C -10.4 °C 34520.3 hPa South 8 km/h 12.9 km/h 38 % 0 mm
14:12 -1.7 °C -10.4 °C 34533.8 hPa WNW 2.9 km/h 5.1 km/h 38 % 0 mm
14:17 -1.6 °C -10.2 °C 34520.3 hPa NE 8 km/h 8 km/h 39 % 0 mm
14:22 -1.7 °C -10.2 °C 34520.3 hPa Calm   5.1 km/h 39 % 0 mm
14:27 -1.4 °C -10.2 °C 34520.3 hPa Calm   2.6 km/h 38 % 0 mm
14:33 -1.6 °C -10.6 °C 34520.3 hPa Calm   7.7 km/h 37 % 0 mm
14:38 -1.7 °C -10.2 °C 34520.3 hPa West 2.9 km/h 12.9 km/h 39 % 0 mm
14:43 -1.7 °C -10.2 °C 34520.3 hPa Calm   15.6 km/h 39 % 0 mm
14:48 -1.7 °C -10.7 °C 34520.3 hPa Calm   18.2 km/h 37 % 0 mm
14:53 -1.6 °C -10.2 °C 34520.3 hPa Calm   12.9 km/h 39 % 0 mm
14:58 -1.5 °C -10.7 °C 34520.3 hPa Calm   15.6 km/h 36 % 0 mm
15:04 -1.5 °C -10.5 °C 34520.3 hPa Calm   12.9 km/h 37 % 0 mm
15:09 -1.6 °C -10.8 °C 34520.3 hPa Calm   28.5 km/h 36 % 0 mm
15:14 -1.7 °C -10.7 °C 34520.3 hPa Calm   5.1 km/h 37 % 0 mm
15:19 -1.6 °C -10.8 °C 34510.1 hPa SSW 5.1 km/h 5.1 km/h 36 % 0 mm
15:24 -1.6 °C -10.8 °C 34520.3 hPa ESE 2.9 km/h 12.9 km/h 36 % 0 mm
15:29 -1.5 °C -10.9 °C 34520.3 hPa SSE 2.9 km/h 5.1 km/h 35 % 0 mm
15:34 -1.3 °C -10.8 °C 34510.1 hPa SW 5.1 km/h 5.1 km/h 35 % 0 mm
15:39 -1.3 °C -10.8 °C 34510.1 hPa Calm   15.6 km/h 35 % 0 mm
15:44 -1.4 °C -10.4 °C 34510.1 hPa SSW 5.1 km/h 7.7 km/h 37 % 0 mm
15:50 -1.9 °C -10.9 °C 34510.1 hPa NNE 5.1 km/h 10.3 km/h 37 % 0 mm
15:55 -2.3 °C -10.8 °C 34510.1 hPa NNE 8 km/h 8 km/h 39 % 0 mm
16:00 -2.4 °C -9.7 °C 34510.1 hPa NE 11.1 km/h 12.9 km/h 45 % 0 mm
16:05 -2.4 °C -9.8 °C 34510.1 hPa NW 11.1 km/h 23.3 km/h 44 % 0 mm
16:10 -2.4 °C -9.6 °C 34510.1 hPa NNW 2.9 km/h 15.6 km/h 45 % 0 mm
16:15 -2.4 °C -9.6 °C 34510.1 hPa Calm   7.7 km/h 45 % 0 mm
16:20 -2.4 °C -9.9 °C 34510.1 hPa NNW 5.1 km/h 25.9 km/h 44 % 0 mm
16:25 -2.6 °C -10.2 °C 34510.1 hPa Calm   15.6 km/h 43 % 0 mm
16:30 -2.6 °C -10.2 °C 34510.1 hPa WNW 5.1 km/h 10.3 km/h 43 % 0 mm
16:36 -2.6 °C -10.2 °C 34496.6 hPa WNW 2.9 km/h 25.9 km/h 43 % 0 mm
16:41 -2.6 °C -10.2 °C 34496.6 hPa Calm   15.6 km/h 43 % 0 mm
16:46 -2.6 °C -10.2 °C 34510.1 hPa NE 2.9 km/h 18.2 km/h 43 % 0 mm
16:52 -2.7 °C -10.1 °C 34496.6 hPa Calm   25.9 km/h 44 % 0 mm
16:57 -2.7 °C -10.3 °C 34510.1 hPa NNE 8 km/h 10.3 km/h 43 % 0 mm
17:02 -2.6 °C -10.4 °C 34510.1 hPa Calm   23.3 km/h 42 % 0 mm
17:07 -2.7 °C -10.3 °C 34510.1 hPa Calm   5.1 km/h 43 % 0 mm
17:12 -2.7 °C -10.7 °C 34510.1 hPa NNW 5.1 km/h 15.6 km/h 41 % 0 mm
17:17 -2.9 °C -11.1 °C 34510.1 hPa WNW 5.1 km/h 15.6 km/h 40 % 0 mm
17:22 -2.9 °C -10.9 °C 34510.1 hPa NNE 14 km/h 18.2 km/h 41 % 0 mm
17:27 -3 °C -10.8 °C 34510.1 hPa North 5.1 km/h 23.3 km/h 42 % 0 mm
17:32 -3 °C -10.8 °C 34510.1 hPa West 5.1 km/h 15.6 km/h 42 % 0 mm
17:37 -3.1 °C -11.2 °C 34510.1 hPa SSW 2.9 km/h 18.2 km/h 40 % 0 mm
17:43 -3.2 °C -11.6 °C 34496.6 hPa Calm   18.2 km/h 39 % 0 mm
17:48 -3.1 °C -11.4 °C 34496.6 hPa NNW 14 km/h 14 km/h 39 % 0 mm
17:53 -3.1 °C -11.5 °C 34496.6 hPa North 19.2 km/h 19.2 km/h 39 % 0 mm
17:58 -3.3 °C -12.1 °C 34496.6 hPa NNW 14 km/h 15.6 km/h 37 % 0 mm
18:03 -3.3 °C -12.1 °C 34496.6 hPa North 5.1 km/h 7.7 km/h 37 % 0 mm
18:08 -3.3 °C -12.3 °C 34496.6 hPa North 8 km/h 10.3 km/h 36 % 0 mm
18:13 -3.3 °C -12.1 °C 34496.6 hPa North 5.1 km/h 7.7 km/h 37 % 0 mm
18:18 -3.4 °C -12.2 °C 34496.6 hPa Calm   15.6 km/h 37 % 0 mm
18:23 -3.4 °C -12.2 °C 34496.6 hPa NNE 8 km/h 12.9 km/h 37 % 0 mm
18:28 -3.4 °C -12.4 °C 34496.6 hPa WSW 5.1 km/h 15.6 km/h 36 % 0 mm
18:33 -3.4 °C -12.4 °C 34496.6 hPa Calm   5.1 km/h 36 % 0 mm
Weerstation Boxtel
Gegevens verzameld door Weather Underground - 3.75 mb

Script ontwikkeld door  Jim McMurry - jmcmurry@mwt.net Aangepast voor de template door  Wim van der Kuil - Leuven-Template.eu

U vindt ons ook hier:

Het Weer Aktueel

UK Metoffice

European Weather Network

Weather Underground

AWEKAS

Citizen Weather Observer Program (CWOP)

HAMweather, WeatherForYou, PWS Weather

Apparatuur in gebruik:

Weerstation
Davis Vue ISS

Weerprogramma
Meteobridge

Weercomputer
Asus WL -330N3G

Webleverancier
Weerhuisje.nl

Davis Vue ISS

Meteobridge

Asus WL -330N3G

Weerhuisje.nl